STARLINK-3895 (52583 NORAD) Tracking and Keplerian Element Data

This shows tracking and keplerian element data for the satellite.

Feedback or suggestion? Click here.




ElementValue
Catalog52583
NameSTARLINK-3895
Epoch Orbit130
Epoch Day167.08334491
Epoch Year2022
RAAN128.9754
Inclination53.2169
Eccentricity0.0002778
Argument of Perigee14.4249
Mean Anonmoly62.5817
Mean Motion15.73276017
Decay Rate-0.00074332
L11 52583U 22051AZ 22167.08334491 -.00074332 00000+0 -52802-3 0 9993
L22 52583 53.2169 128.9754 0002778 14.4249 62.5817 15.73276017 1307

Live tracking and technical data element details for STARLINK-3895 (NORAD 52583). STARLINK-3895 can be tracked NOW for your location showing map with azimuth and elevation plus other details from your city location.

Track the satellite on the map from your city or location and see movement details for azimuth, elevation, latitude, longitude, range, height, and movement on the map or in text.







IsCatalogInMostPopularTable: catalog: 52583, numindb: 3
Update: records affected: 1



GetName: 52583 STARLINK-3895

Hit Count: updated at: Mon, 27 Jun 2022 06:20:47 GMT